Skip Page Navigation
NASA JPL Caltech
NASA Logo - Jet Propulsion Laboratory + View the NASA Portal
+ Center for Near-Earth Object Studies
JPL Home Earth Solar System Stars & Galaxies Technology
JPL Solar System Dynamics
BODIES ORBITS EPHEMERIDES TOOLS PHYSICAL DATA DISCOVERY FAQ SITE MAP
JPL Small-Body Database Browser
Search: [ help ]  
134166 (2005 BL19)
Classification: Main-belt Asteroid          SPK-ID: 2134166
Ephemeris | Orbit Diagram | Orbital Elements | Mission Design | Physical Parameters | Discovery Circumstances | Close-Approach Data ]

[ show orbit diagram ]
Orbital Elements at Epoch 2459000.5 (2020-May-31.0) TDB
Reference: JPL 18 (heliocentric ecliptic J2000)
 Element Value Uncertainty (1-sigma)   Units 
e .06937046869276824 4.5156e-08  
a 2.963363792417641 3.2754e-08 au
q 2.75779385723045 1.4371e-07 au
i 11.05847402266861 5.1328e-06 deg
node 88.96918054839583 3.1979e-05 deg
peri 27.88459948874295 5.7243e-05 deg
M 9.248468914045015 4.7744e-05 deg
tp 2458952.632227033141
(2020-Apr-13.13222703)
0.00024685 TDB
period 1863.270388669382
5.10
3.0892e-05
8.458e-08
d
yr
n .1932086734105655 3.2033e-09 deg/d
Q 3.168933727604831 3.5026e-08 au
  Orbit Determination Parameters
   # obs. used (total)      398  
   data-arc span      6426 days (17.59 yr)  
   first obs. used      2002-06-20  
   last obs. used      2020-01-23  
   planetary ephem.      DE431  
   SB-pert. ephem.      SB431-N16  
   condition code      0  
   norm. resid. RMS      .61029  
   source      ORB  
   producer      Otto Matic  
   solution date      2020-Feb-24 07:27:32  

Additional Information
 Earth MOID = 1.77936 au 
 Jupiter MOID = 1.97138 au 
 T_jup = 3.234 
[ show covariance matrix ]

Ephemeris | Orbit Diagram | Orbital Elements | Mission Design | Physical Parameters | Discovery Circumstances | Close-Approach Data ]

Physical Parameter Table
Parameter Symbol Value Units Sigma Reference Notes
absolute magnitude H 15.2   n/a MPO453826  
diameter diameter 3.111 km 0.439 urn:nasa:pds:neowise_diameters_albedos::2.0[mainbelt] (http://adsabs.harvard.edu/abs/2011ApJ...741...68M)  
geometric albedo albedo 0.166   0.071 urn:nasa:pds:neowise_diameters_albedos::2.0[mainbelt] (http://adsabs.harvard.edu/abs/2011ApJ...741...68M)  

134166 (2005 BL19)          Discovered 2005-Jan-16 by LINEAR at Socorro
Reference: 20060711/Numbers.arcLast Updated: 2006-07-17

[ show close-approach data ]
Alternate Designations
 2005 BL19 = 2002 NE49 
Ephemeris | Orbit Diagram | Orbital Elements | Mission Design | Physical Parameters | Discovery Circumstances | Close-Approach Data ]
ABOUT SSD CREDITS/AWARDS PRIVACY/COPYRIGHT GLOSSARY LINKS
FirstGov 2020-Oct-24 04:25 UT
(server date/time)  
NASA Home Page
Site Manager:   Ryan S. Park
Webmaster  Alan B. Chamberlin